Find Starlink 30932

NORAD ID: 58523 Int'l Des: 2023-191 Owner: SPXS Country: US Constellation: starlink operational
LEOCIRCULAR

Live Position

Loading 3D Globe...

About Starlink 30932

Description loading...

Upcoming Passes

Passes for default location (London). Set your location on the main map for personalized predictions.

Altitude History

Loading altitude history...

Two-Line Element Set

1 58523U 23191R 26122.10580933 .00006091 00000-0 23054-3 0 9994
2 58523 43.0020 161.5065 0001189 263.5179 96.5538 15.27602225133599
Epoch: May 2, 2026 • Age: 13 hours

Current Status

Altitude 484.1 km
Velocity 7.62 km/s
Sub-Earth Point -8.36°S, 63.4°E
Launch Date Dec 7, 2023
Age 2.4 years
Type internet

Technical Details

Classification Payload
Mass 730.00 kg
Dry Mass 700.00 kg
Total Mass 730.00 kg
Length 0.30 m
Diameter 4.10 m
Span 29.00 m
Shape Box + pan
Manufacturer SPXS
Bus Type Starlink V2M
Phase Status In Orbit
Owner/State SPXS/US

Most Searched